Location: De Greiden
(52.9496°N, 5.9137°E)
Time: 01:44:38
(UTC+00:00)

COSMOS 2406 - Pass Details

Date: 24 January 2021
Orbit: 841 x 866 km, 71.0° (Epoch: 26 February)

Event Time Altitude Azimuth Distance (km) Brightness Sun altitude
Rises 16:36:26 0° 327° (NNW) 3,461 6.5 -4.8°
Reaches altitude 10° 16:39:17 10° 339° (NNW) 2,521 5.6 -5.2°
Maximum altitude 16:44:13 28° 37° (NE) 1,582 4.2 -5.9°
Drops below altitude 10° 16:49:07 10° 96° (E) 2,507 5.1 -6.6°
Sets 16:51:57 0° 108° (ESE) 3,439 5.9 -7.0°
